Time,TemperatureF,DewpointF,PressureIn,WindDirection,WindDirectionDegrees,WindSpeedMPH,WindSpeedGustMPH,Humidity,HourlyPrecipIn,Conditions,Clouds,dailyrainin,SoftwareType,DateUTC
2013-01-02 00:03:00,37.2,29.0,30.06,West,270,0.0,-999.0,72,-99.99,,,0.00,Acu-Link.com,2013-01-02 06:03:00,
2013-01-02 00:18:00,37.2,29.0,30.06,West,270,0.0,-999.0,72,-99.99,,,0.00,Acu-Link.com,2013-01-02 06:18:00,
2013-01-02 00:33:00,37.2,29.0,30.05,West,270,0.0,-999.0,72,-99.99,,,0.00,Acu-Link.com,2013-01-02 06:33:00,
2013-01-02 00:49:00,37.0,29.2,30.05,West,270,0.0,-999.0,73,-99.99,,,0.00,Acu-Link.com,2013-01-02 06:49:00,
2013-01-02 01:04:00,37.0,29.2,30.05,West,270,0.0,-999.0,73,-99.99,,,0.00,Acu-Link.com,2013-01-02 07:04:00,
2013-01-02 01:19:00,37.0,29.2,30.05,West,270,0.0,-999.0,73,-99.99,,,0.00,Acu-Link.com,2013-01-02 07:19:00,
2013-01-02 01:35:00,36.9,29.4,30.05,West,270,0.0,-999.0,74,-99.99,,,0.00,Acu-Link.com,2013-01-02 07:35:00,
2013-01-02 01:50:00,36.5,29.3,30.06,West,270,0.0,-999.0,75,-99.99,,,0.00,Acu-Link.com,2013-01-02 07:50:00,
2013-01-02 02:05:00,36.1,29.3,30.06,West,270,0.0,-999.0,76,-99.99,,,0.00,Acu-Link.com,2013-01-02 08:05:00,
2013-01-02 02:21:00,36.0,29.2,30.06,West,270,0.0,-999.0,76,-99.99,,,0.00,Acu-Link.com,2013-01-02 08:21:00,
2013-01-02 02:36:00,35.8,29.0,30.06,West,270,0.0,-999.0,76,-99.99,,,0.00,Acu-Link.com,2013-01-02 08:36:00,
2013-01-02 02:51:00,35.6,29.1,30.06,West,270,0.0,-999.0,77,-99.99,,,0.00,Acu-Link.com,2013-01-02 08:51:00,
2013-01-02 03:06:00,35.6,29.4,30.06,West,270,0.0,-999.0,78,-99.99,,,0.00,Acu-Link.com,2013-01-02 09:06:00,
2013-01-02 03:22:00,35.2,29.0,30.06,West,270,0.0,-999.0,78,-99.99,,,0.00,Acu-Link.com,2013-01-02 09:22:00,
2013-01-02 03:37:00,35.1,28.9,30.06,West,270,0.0,-999.0,78,-99.99,,,0.00,Acu-Link.com,2013-01-02 09:37:00,
2013-01-02 03:52:00,35.1,28.9,30.07,West,270,0.0,-999.0,78,-99.99,,,0.00,Acu-Link.com,2013-01-02 09:52:00,
2013-01-02 04:07:00,34.9,29.1,30.06,West,270,0.0,-999.0,79,-99.99,,,0.00,Acu-Link.com,2013-01-02 10:07:00,
2013-01-02 04:23:00,34.7,28.9,30.06,West,270,0.0,-999.0,79,-99.99,,,0.00,Acu-Link.com,2013-01-02 10:23:00,
2013-01-02 04:38:00,34.5,29.0,30.05,West,270,0.0,-999.0,80,-99.99,,,0.00,Acu-Link.com,2013-01-02 10:38:00,
2013-01-02 04:53:00,34.3,28.5,30.05,West,270,0.0,-999.0,79,-99.99,,,0.00,Acu-Link.com,2013-01-02 10:53:00,
2013-01-02 05:09:00,34.2,28.7,30.06,West,270,0.0,-999.0,80,-99.99,,,0.00,Acu-Link.com,2013-01-02 11:09:00,
2013-01-02 05:24:00,34.0,28.5,30.06,West,270,0.0,-999.0,80,-99.99,,,0.00,Acu-Link.com,2013-01-02 11:24:00,
2013-01-02 05:39:00,34.0,28.8,30.05,West,270,0.0,-999.0,81,-99.99,,,0.00,Acu-Link.com,2013-01-02 11:39:00,
2013-01-02 05:55:00,33.6,28.4,30.05,West,270,0.0,-999.0,81,-99.99,,,0.00,Acu-Link.com,2013-01-02 11:55:00,
2013-01-02 06:10:00,33.6,28.4,30.05,West,270,0.0,-999.0,81,-99.99,,,0.00,Acu-Link.com,2013-01-02 12:10:00,
2013-01-02 06:25:00,33.6,28.4,30.05,West,270,0.0,-999.0,81,-99.99,,,0.00,Acu-Link.com,2013-01-02 12:25:00,
2013-01-02 06:41:00,33.6,28.4,30.06,West,270,0.0,-999.0,81,-99.99,,,0.00,Acu-Link.com,2013-01-02 12:41:00,
2013-01-02 06:56:00,33.4,28.2,30.06,West,270,0.0,-999.0,81,-99.99,,,0.00,Acu-Link.com,2013-01-02 12:56:00,
2013-01-02 07:11:00,33.4,28.2,30.07,West,270,0.0,-999.0,81,-99.99,,,0.00,Acu-Link.com,2013-01-02 13:11:00,
2013-01-02 07:27:00,33.4,28.2,30.07,West,270,0.0,-999.0,81,-99.99,,,0.00,Acu-Link.com,2013-01-02 13:27:00,
2013-01-02 07:42:00,33.4,28.2,30.07,West,270,0.0,-999.0,81,-99.99,,,0.00,Acu-Link.com,2013-01-02 13:42:00,
2013-01-02 07:57:00,33.4,28.2,30.08,West,270,0.0,-999.0,81,-99.99,,,0.00,Acu-Link.com,2013-01-02 13:57:00,
2013-01-02 08:12:00,33.4,28.2,30.08,West,270,0.0,-999.0,81,-99.99,,,0.00,Acu-Link.com,2013-01-02 14:12:00,
2013-01-02 08:27:00,33.6,28.4,30.09,West,270,0.0,-999.0,81,-99.99,,,0.00,Acu-Link.com,2013-01-02 14:27:00,
2013-01-02 08:43:00,34.0,28.5,30.10,West,270,0.0,-999.0,80,-99.99,,,0.00,Acu-Link.com,2013-01-02 14:43:00,
2013-01-02 08:58:00,34.3,28.8,30.10,West,270,0.0,-999.0,80,-99.99,,,0.00,Acu-Link.com,2013-01-02 14:58:00,
2013-01-02 09:13:00,34.5,28.7,30.10,West,270,0.0,-999.0,79,-99.99,,,0.00,Acu-Link.com,2013-01-02 15:13:00,
2013-01-02 09:29:00,35.1,28.9,30.10,West,270,0.0,-999.0,78,-99.99,,,0.00,Acu-Link.com,2013-01-02 15:29:00,
2013-01-02 09:44:00,35.6,29.1,30.11,West,270,0.0,-999.0,77,-99.99,,,0.00,Acu-Link.com,2013-01-02 15:44:00,
2013-01-02 09:59:00,36.3,29.5,30.11,West,270,1.7,-999.0,76,-99.99,,,0.00,Acu-Link.com,2013-01-02 15:59:00,
2013-01-02 10:15:00,36.7,29.2,30.11,West,270,0.0,-999.0,74,-99.99,,,0.00,Acu-Link.com,2013-01-02 16:15:00,
2013-01-02 10:30:00,37.2,29.4,30.12,West,270,1.7,-999.0,73,-99.99,,,0.00,Acu-Link.com,2013-01-02 16:30:00,
2013-01-02 10:45:00,37.9,29.4,30.11,West,270,0.0,-999.0,71,-99.99,,,0.00,Acu-Link.com,2013-01-02 16:45:00,
2013-01-02 11:01:00,38.7,29.4,30.11,West,270,0.0,-999.0,69,-99.99,,,0.00,Acu-Link.com,2013-01-02 17:01:00,
2013-01-02 11:16:00,39.0,29.3,30.11,West,270,0.0,-999.0,68,-99.99,,,0.00,Acu-Link.com,2013-01-02 17:16:00,
2013-01-02 11:31:00,39.6,29.6,30.10,West,270,1.1,-999.0,67,-99.99,,,0.00,Acu-Link.com,2013-01-02 17:31:00,
2013-01-02 11:47:00,40.1,29.7,30.09,West,270,0.0,-999.0,66,-99.99,,,0.00,Acu-Link.com,2013-01-02 17:47:00,
2013-01-02 12:02:00,40.6,30.1,30.08,West,270,0.0,-999.0,66,-99.99,,,0.00,Acu-Link.com,2013-01-02 18:02:00,
2013-01-02 12:17:00,41.4,30.1,30.07,West,270,0.0,-999.0,64,-99.99,,,0.00,Acu-Link.com,2013-01-02 18:17:00,
2013-01-02 12:32:00,41.7,30.4,30.06,West,270,0.0,-999.0,64,-99.99,,,0.00,Acu-Link.com,2013-01-02 18:32:00,
2013-01-02 12:48:00,42.3,30.6,30.06,West,270,2.2,-999.0,63,-99.99,,,0.00,Acu-Link.com,2013-01-02 18:48:00,
2013-01-02 13:03:00,41.9,29.8,30.05,West,270,1.1,-999.0,62,-99.99,,,0.00,Acu-Link.com,2013-01-02 19:03:00,
2013-01-02 13:18:00,42.6,30.5,30.04,West,270,0.0,-999.0,62,-99.99,,,0.00,Acu-Link.com,2013-01-02 19:18:00,
2013-01-02 13:34:00,42.6,29.7,30.03,West,270,0.0,-999.0,60,-99.99,,,0.00,Acu-Link.com,2013-01-02 19:34:00,
2013-01-02 13:49:00,43.0,30.1,30.03,West,270,0.0,-999.0,60,-99.99,,,0.00,Acu-Link.com,2013-01-02 19:49:00,
2013-01-02 14:04:00,43.2,30.3,30.03,West,270,0.0,-999.0,60,-99.99,,,0.00,Acu-Link.com,2013-01-02 20:04:00,
2013-01-02 14:20:00,43.2,30.3,30.03,West,270,0.0,-999.0,60,-99.99,,,0.00,Acu-Link.com,2013-01-02 20:20:00,
2013-01-02 14:35:00,43.5,30.1,30.02,West,270,0.0,-999.0,59,-99.99,,,0.00,Acu-Link.com,2013-01-02 20:35:00,
2013-01-02 14:50:00,44.1,30.7,30.01,West,270,0.0,-999.0,59,-99.99,,,0.00,Acu-Link.com,2013-01-02 20:50:00,
2013-01-02 15:06:00,44.1,30.3,30.02,West,270,0.0,-999.0,58,-99.99,,,0.00,Acu-Link.com,2013-01-02 21:06:00,
2013-01-02 15:21:00,44.2,30.4,30.01,West,270,0.0,-999.0,58,-99.99,,,0.00,Acu-Link.com,2013-01-02 21:21:00,
2013-01-02 15:36:00,44.2,30.4,30.01,West,270,0.0,-999.0,58,-99.99,,,0.00,Acu-Link.com,2013-01-02 21:36:00,
2013-01-02 15:52:00,44.2,30.4,30.01,West,270,0.0,-999.0,58,-99.99,,,0.00,Acu-Link.com,2013-01-02 21:52:00,
2013-01-02 16:07:00,44.2,29.9,30.01,West,270,0.0,-999.0,57,-99.99,,,0.00,Acu-Link.com,2013-01-02 22:07:00,
2013-01-02 16:22:00,44.4,30.1,30.01,West,270,0.0,-999.0,57,-99.99,,,0.00,Acu-Link.com,2013-01-02 22:22:00,
2013-01-02 16:37:00,44.8,30.1,30.01,West,270,0.0,-999.0,56,-99.99,,,0.00,Acu-Link.com,2013-01-02 22:37:00,
2013-01-02 16:53:00,43.9,29.2,30.01,West,270,0.0,-999.0,56,-99.99,,,0.00,Acu-Link.com,2013-01-02 22:53:00,
2013-01-02 17:08:00,43.0,29.2,30.02,West,270,0.0,-999.0,58,-99.99,,,0.00,Acu-Link.com,2013-01-02 23:08:00,
2013-01-02 17:23:00,42.3,29.4,30.02,West,270,0.0,-999.0,60,-99.99,,,0.00,Acu-Link.com,2013-01-02 23:23:00,
2013-01-02 17:39:00,41.7,29.3,30.02,West,270,0.0,-999.0,61,-99.99,,,0.00,Acu-Link.com,2013-01-02 23:39:00,
2013-01-02 17:54:00,41.2,29.2,30.01,West,270,0.0,-999.0,62,-99.99,,,0.00,Acu-Link.com,2013-01-02 23:54:00,
2013-01-02 18:09:00,40.5,29.3,30.02,West,270,0.0,-999.0,64,-99.99,,,0.00,Acu-Link.com,2013-01-03 00:09:00,
2013-01-02 18:24:00,39.9,29.5,30.02,West,270,0.0,-999.0,66,-99.99,,,0.00,Acu-Link.com,2013-01-03 00:24:00,
2013-01-02 18:40:00,39.2,29.5,30.03,West,270,0.0,-999.0,68,-99.99,,,0.00,Acu-Link.com,2013-01-03 00:40:00,
2013-01-02 18:55:00,38.8,29.5,30.04,West,270,0.0,-999.0,69,-99.99,,,0.00,Acu-Link.com,2013-01-03 00:55:00,
2013-01-02 19:10:00,37.9,29.0,30.04,West,270,0.0,-999.0,70,-99.99,,,0.00,Acu-Link.com,2013-01-03 01:10:00,
2013-01-02 19:26:00,37.8,29.3,30.05,West,270,0.0,-999.0,71,-99.99,,,0.00,Acu-Link.com,2013-01-03 01:26:00,
2013-01-02 19:41:00,37.2,29.4,30.05,West,270,0.0,-999.0,73,-99.99,,,0.00,Acu-Link.com,2013-01-03 01:41:00,
2013-01-02 19:56:00,36.7,28.9,30.06,West,270,0.0,-999.0,73,-99.99,,,0.00,Acu-Link.com,2013-01-03 01:56:00,
2013-01-02 20:12:00,35.8,28.7,30.06,West,270,0.0,-999.0,75,-99.99,,,0.00,Acu-Link.com,2013-01-03 02:12:00,
2013-01-02 20:27:00,35.4,28.9,30.06,West,270,0.0,-999.0,77,-99.99,,,0.00,Acu-Link.com,2013-01-03 02:27:00,
2013-01-02 20:42:00,35.1,28.9,30.06,West,270,0.0,-999.0,78,-99.99,,,0.00,Acu-Link.com,2013-01-03 02:42:00,
2013-01-02 20:57:00,34.5,29.0,30.06,West,270,0.0,-999.0,80,-99.99,,,0.00,Acu-Link.com,2013-01-03 02:57:00,
2013-01-02 21:13:00,34.0,28.2,30.06,West,270,0.0,-999.0,79,-99.99,,,0.00,Acu-Link.com,2013-01-03 03:13:00,
2013-01-02 21:28:00,33.6,28.4,30.06,West,270,0.0,-999.0,81,-99.99,,,0.00,Acu-Link.com,2013-01-03 03:28:00,
2013-01-02 21:59:00,32.7,27.8,30.07,West,270,0.0,-999.0,82,-99.99,,,0.00,Acu-Link.com,2013-01-03 03:59:00,
2013-01-02 22:14:00,32.4,27.5,30.07,West,270,0.0,-999.0,82,-99.99,,,0.00,Acu-Link.com,2013-01-03 04:14:00,
2013-01-02 22:29:00,32.2,27.6,30.07,West,270,0.0,-999.0,83,-99.99,,,0.00,Acu-Link.com,2013-01-03 04:29:00,
2013-01-02 22:45:00,31.8,27.5,30.07,West,270,0.0,-999.0,84,-99.99,,,0.00,Acu-Link.com,2013-01-03 04:45:00,
2013-01-02 23:15:00,31.5,27.2,30.08,West,270,0.0,-999.0,84,-99.99,,,0.00,Acu-Link.com,2013-01-03 05:15:00,
2013-01-02 23:31:00,31.5,27.2,30.08,West,270,0.0,-999.0,84,-99.99,,,0.00,Acu-Link.com,2013-01-03 05:31:00,
2013-01-02 23:46:00,31.3,27.0,30.08,West,270,0.0,-999.0,84,-99.99,,,0.00,Acu-Link.com,2013-01-03 05:46:00,